Waco, TX

11:36 PM CST on December 10, 2017 (GMT -0600)
Waco Regional

Weather History for KACT - November, 2014

Change the Weather History Date:

Thursday, November 20, 2014

  Actual Average Record
Temperature  
Mean Temperature 56 °F 56 °F  
Max Temperature 73 °F 67 °F 85 °F (1949)
Min Temperature 39 °F 45 °F 23 °F (1937)
Degree Days  
Heating Degree Days 9 10  
Month to date heating degree days 294 142  
Since 1 July heating degree days 306 209  
Cooling Degree Days 0 1  
Month to date cooling degree days 1 32  
Year to date cooling degree days 2744 2788  
Growing Degree Days 6 (Base 50)    
Moisture  
Dew Point 52 °F    
Average Humidity 79    
Maximum Humidity 100    
Minimum Humidity 57    
Precipitation  
Precipitation T in 0.08 in 2.02 in (1934)
Month to date precipitation 1.83 1.98  
Year to date precipitation 28.70 31.10  
Snow  
Snow 0.00 in 0.00 in T in (1906)
Month to date snowfall 0.0 0.0  
Since 1 July snowfall 0.0 0.0  
Since 1 September snowfall 0.0 0.0  
Snow Depth 0.00 in    
Sea Level Pressure  
Sea Level Pressure 30.07 in    
Wind  
Wind Speed 11 mph (SSE)    
Max Wind Speed 22 mph    
Max Gust Speed 27 mph    
Visibility 10 miles    
Events Rain    
T = Trace of Precipitation, MM = Missing Value Source: NWS Daily Summary

Daily Weather History Graph

Daily Weather History Graph

Search for Another Location

Airport or City:

Trip Planner

Search our weather history database for the weather conditions in past years. The results will help you decide how hot, cold, wet, or windy it might be!

Date:

Astronomy

Nov. 20, 2014 Rise Set
Actual Time 7:01 AM CST 5:27 PM CST
Civil Twilight 6:35 AM CST 5:53 PM CST
Nautical Twilight 6:05 AM CST 6:23 PM CST
Astronomical Twilight 5:36 AM CST 6:52 PM CST
Moon 5:05 AM CST (11/20) 4:25 PM CST (11/20)
Length of Visible Light 11h 18m
Length of Day
10h 26m
Waning Crescent, 4% of the Moon is Illuminated
Nov 20
Waning Crescent
Nov 22
New
Nov 29
First Quarter
Dec 6
Full
Dec 14
Last Quarter

Hourly Weather History & Observations

Time (CST) Temp. Windchill Dew Point Humidity Pressure Visibility Wind Dir Wind Speed Gust Speed Precip Events Conditions
12:51 AM 46.9 °F - 42.1 °F 83% 30.14 in 10.0 mi South 6.9 mph - N/A   Clear
1:51 AM 46.0 °F 43.9 °F 42.1 °F 86% 30.14 in 10.0 mi SSW 4.6 mph - N/A   Clear
2:51 AM 44.1 °F 41.5 °F 42.1 °F 93% 30.13 in 10.0 mi SSW 4.6 mph - N/A   Clear
3:51 AM 41.0 °F 37.1 °F 39.0 °F 93% 30.12 in 10.0 mi South 5.8 mph - N/A   Clear
4:51 AM 41.0 °F 38.0 °F 39.0 °F 93% 30.12 in 10.0 mi South 4.6 mph - N/A   Clear
5:51 AM 39.9 °F 36.7 °F 39.0 °F 97% 30.13 in 10.0 mi ESE 4.6 mph - N/A   Clear
6:51 AM 41.0 °F 39.0 °F 39.9 °F 96% 30.13 in 10.0 mi East 3.5 mph - N/A   Clear
7:51 AM 43.0 °F 40.3 °F 41.0 °F 93% 30.14 in 10.0 mi ESE 4.6 mph - N/A   Clear
8:51 AM 51.1 °F - 46.0 °F 83% 30.14 in 10.0 mi SE 5.8 mph - N/A   Clear
9:51 AM 60.1 °F - 50.0 °F 69% 30.13 in 10.0 mi SSE 11.5 mph - N/A   Clear
10:51 AM 66.0 °F - 53.1 °F 63% 30.12 in 10.0 mi South 12.7 mph 23.0 mph N/A   Clear
11:51 AM 68.0 °F - 54.0 °F 61% 30.09 in 10.0 mi South 19.6 mph - N/A   Scattered Clouds
12:12 PM 68.0 °F - 54.0 °F 61% 30.08 in 10.0 mi South 16.1 mph - N/A   Mostly Cloudy
12:22 PM 68.0 °F - 54.0 °F 61% 30.07 in 10.0 mi South 16.1 mph - N/A   Scattered Clouds
12:51 PM 70.0 °F - 54.0 °F 57% 30.05 in 10.0 mi South 17.3 mph 25.3 mph N/A   Mostly Cloudy
1:51 PM 70.0 °F - 55.0 °F 59% 30.02 in 10.0 mi South 16.1 mph - N/A   Mostly Cloudy
2:51 PM 71.1 °F - 55.0 °F 57% 29.99 in 10.0 mi South 17.3 mph - N/A   Partly Cloudy
3:51 PM 69.1 °F - 55.9 °F 63% 29.99 in 10.0 mi South 16.1 mph - N/A   Clear
4:51 PM 68.0 °F - 55.9 °F 65% 30.00 in 10.0 mi South 11.5 mph - N/A   Clear
5:51 PM 63.0 °F - 55.9 °F 78% 30.01 in 10.0 mi South 9.2 mph - N/A   Scattered Clouds
6:51 PM 64.0 °F - 57.0 °F 78% 30.02 in 10.0 mi SSE 9.2 mph - N/A   Partly Cloudy
7:40 PM 64.0 °F - 57.9 °F 80% 30.04 in 10.0 mi SSE 10.4 mph - N/A   Mostly Cloudy
7:51 PM 64.0 °F - 59.0 °F 84% 30.04 in 10.0 mi SSE 15.0 mph - N/A   Mostly Cloudy
8:08 PM 64.0 °F - 60.1 °F 87% 30.05 in 10.0 mi SSE 13.8 mph 23.0 mph N/A   Mostly Cloudy
8:51 PM 62.1 °F - 59.0 °F 90% 30.05 in 10.0 mi SSE 15.0 mph - 0.00 in   Overcast
9:40 PM 62.1 °F - 57.9 °F 86% 30.06 in 10.0 mi South 15.0 mph - N/A   Overcast
9:51 PM 62.1 °F - 57.9 °F 86% 30.05 in 10.0 mi SSE 15.0 mph - N/A   Overcast
10:51 PM 61.0 °F - 59.0 °F 93% 30.05 in 10.0 mi SSE 12.7 mph - N/A   Overcast
11:17 PM 60.1 °F - 59.0 °F 96% 30.07 in 10.0 mi SSE 11.5 mph - 0.00 in Rain Light Rain
11:51 PM 60.1 °F - 59.0 °F 96% 30.06 in 10.0 mi SSE 10.4 mph - 0.00 in   Overcast